[[{"header":{"parameterUnit":"m.s-1","parameterCategory":1,"la1":30.2991,"la2":30.254,"lo1":-89.0895,"lo2":-89.0444,"dy":0.0017,"dx":0.0017,"nx":28,"ny":28,"refTime":"2024-07-16T03:00:00:Z","depth":0,"parameterNumber":2,"parameterNumberName":"U-component_of_WINDS"},"data":[0,0,0,0,0,0,0,0,0,0,0,0,0,0,0,0,0,0,0,0,0,0,0,0,0,0,0,0,0,0,0,0,0,0,0,0,0,0,0,0,0,0,0,0,0,0,0,0,0,0,0,0,0,0,0,0,0,0,2.6487,2.6488,0,2.6538,2.6539,2.6539,2.6491,2.6489,2.6487,2.6485,2.6538,2.6541,2.6544,0,0,0,0,0,0,0,0,0,0,0,0,0,2.6347,2.635,2.6487,2.6488,2.6488,2.6538,2.6539,2.6539,2.6491,2.6489,2.6486,2.6484,2.6537,2.6541,2.6545,0,0,0,0,0,0,0,0,0,0,0,0,0,2.6404,2.635,2.6487,2.647,2.6469,2.6538,2.6539,2.654,2.6491,2.6489,2.6486,2.6483,2.6536,2.654,2.6545,2.6633,0,0,2.656,2.6562,0,0,0,0,0,0,0,0,2.6401,2.6409,2.6472,2.6472,2.6471,2.6505,2.6508,2.6571,2.6492,2.6483,2.6485,2.6482,2.6529,2.6535,2.655,2.6635,2.6638,2.656,2.6563,2.6565,2.6567,0,0,0,0,0,0,0,2.6397,2.6406,2.6507,2.6473,2.6472,2.646,2.6465,2.652,2.6522,2.6484,2.648,2.6487,2.6528,2.6546,2.6551,2.6639,2.656,2.6564,2.6567,2.6569,2.6794,2.6797,0,0,0,0,0,0,2.6395,2.6403,2.6506,2.6509,2.6428,2.6465,2.647,2.6497,2.6521,2.6522,2.6489,2.6484,2.6539,2.6546,2.6553,2.6654,2.6565,2.657,2.6572,2.6791,2.6795,2.6798,0,0,0,0,0,0,2.6392,2.6404,2.6504,2.6455,2.6467,2.647,2.6501,2.6499,2.6517,2.6525,2.6525,2.6507,2.6537,2.6546,2.6612,2.6656,2.6572,2.6576,2.6787,2.6792,2.6796,2.686,0,0,0,0,0,0,2.6388,2.6403,2.6437,2.6456,2.647,2.6563,2.6503,2.6503,2.6525,2.6519,2.6542,2.6543,2.6536,2.6605,2.6617,2.6661,2.658,2.6783,2.6789,2.6795,2.6854,2.6866,2.6876,0,0,0,0,0,2.6383,2.6455,2.6439,2.6452,2.6512,2.6565,2.6573,2.6563,2.6529,2.6562,2.6567,2.6542,2.6649,2.6613,2.6626,2.6671,2.678,2.6788,2.6794,2.6849,2.6864,2.6876,0,0,0,0,0,0,2.6442,2.6457,2.644,2.652,2.6542,2.6557,2.6599,2.6579,2.6612,2.6605,2.6591,2.6596,2.6665,2.6675,2.6634,2.6755,2.6709,2.6719,2.6746,2.6761,2.6772,2.6767,2.6584,0,0,0,0,0,2.6464,2.6506,2.6517,2.6586,2.6598,2.6597,2.662,2.6609,2.6631,2.6641,2.6651,2.6673,2.6711,2.6737,2.6773,2.6855,2.6858,2.6893,2.6904,2.6913,2.6921,2.6962,2.6977,2.6821,2.6821,2.682,0,0,2.651,2.6523,2.6551,2.6598,2.6614,2.6656,2.6605,2.6653,2.6684,2.6648,2.671,2.6718,2.6742,2.6816,2.6849,2.6826,2.6965,2.6922,2.693,2.6933,2.6971,2.6986,2.6999,2.6825,2.6824,2.6824,0,0,2.6616,2.6631,2.6689,2.6705,2.6728,2.6727,2.6741,2.6759,2.6762,2.6824,2.6796,2.6833,2.6901,2.6917,2.6935,2.7044,2.702,2.7056,2.7114,2.7154,2.7167,2.7177,2.7213,2.7226,2.7064,2.7065,2.7065,0,2.667,2.6733,2.6721,2.677,2.679,2.6758,2.6815,2.6831,2.6866,2.688,2.6854,2.6935,2.695,2.7025,2.7051,2.7068,2.7081,2.7053,2.7166,2.7177,2.7186,2.722,2.7234,2.7068,2.7068,2.7068,2.7067,0,2.6797,2.6842,2.6885,2.6917,2.6943,2.6996,2.699,2.7017,2.7005,2.7005,2.7067,2.7083,2.7119,2.7137,2.7126,2.721,2.7195,2.7168,2.7121,2.7205,2.7237,2.725,2.7074,2.7073,2.7072,2.7071,0,0,2.6942,2.6964,2.698,2.6993,2.7015,2.7049,2.71,2.7135,2.7157,2.7182,2.7222,2.7278,2.7252,2.7272,2.7262,2.7298,2.7378,2.7266,2.7266,2.7284,2.7468,2.7486,2.7502,2.7364,2.7366,2.7368,2.7465,0,2.7045,2.7132,2.7121,2.7204,2.7243,2.7212,2.7256,2.7274,2.7275,2.7308,2.731,2.7349,2.7313,2.7324,2.7358,2.7362,2.7415,2.7355,2.74,2.7401,2.7392,2.7519,2.7539,2.763,2.7478,2.748,2.7481,0,2.7178,2.7205,2.7291,2.7304,2.732,2.736,2.7389,2.7422,2.7441,2.7439,2.746,2.7443,2.7492,2.7445,2.7511,2.747,2.7488,2.7492,2.7496,2.7498,2.7445,2.7522,2.7659,2.7671,2.7501,2.75,2.7498,0,2.727,2.7329,2.7387,2.7399,2.7417,2.7445,2.7454,2.747,2.749,2.7516,2.7529,2.7561,2.7578,2.7602,2.7594,2.7561,2.766,2.7614,2.7659,2.7659,2.768,2.7678,2.7819,2.7696,2.7696,2.7695,2.7695,0,2.7386,2.7439,2.7428,2.7464,2.7522,2.7508,2.7566,2.7571,2.7584,2.7619,2.7596,2.7629,2.7617,2.765,2.7644,2.7697,2.7706,2.7705,2.7702,2.7706,2.7705,2.7715,2.7708,2.7699,2.7698,2.7697,2.7697,0,2.7498,2.7494,2.7554,2.7565,2.7569,2.7611,2.762,2.7652,2.7652,2.7696,2.7706,2.7705,2.7741,2.7735,2.7777,2.7772,2.7838,2.783,2.7831,2.7828,2.7872,2.7867,2.8023,2.8041,2.7909,2.791,2.7911,0,2.7571,2.7611,2.7625,2.7646,2.7656,2.7692,2.7711,2.7699,2.7721,2.7744,2.7773,2.7807,2.7834,2.7893,2.7896,2.7926,2.7916,2.7968,2.7921,2.7921,2.7913,2.791,2.7912,2.7977,2.7979,2.798,2.7981,0,2.7699,2.7694,2.7724,2.7752,2.7776,2.7798,2.7818,2.7837,2.7826,2.7851,2.7887,2.7908,2.7948,2.7982,2.801,2.8018,2.7997,2.7996,2.8007,2.801,2.8008,2.8007,2.7854,2.7992,2.7991,2.799,2.799,2.7989,2.7792,2.7824,2.7838,2.7871,2.7884,2.7902,2.7932,2.7934,2.7964,2.7995,2.7986,2.8027,2.8042,2.8077,2.8088,2.8119,2.81,2.8117,2.8121,2.8125,2.8129,2.8005,2.8125,2.8124,2.8124,2.8124,2.8124,0,2.7916,2.7923,2.7954,2.798,2.8006,2.7983,2.8003,2.8026,2.8061,2.8077,2.8103,2.8143,2.8174,2.8178,2.8208,2.8231,2.8222,2.8239,2.8236,2.8238,2.8146,2.8132,2.8246,2.8246,2.8246,2.8246,2.8246,2.8246,2.7983,2.8036,2.8032,2.809,2.8097,2.8135,2.8148,2.8163,2.8175,2.8221,2.8246,2.8248,2.8259,2.8288,2.8316,2.8316,2.8327,2.8347,2.8343,2.8257,2.8245,2.8233,2.8219,2.835,2.835,2.8432,2.8433,2.8433]},{"header":{"parameterUnit":"m.s-1","parameterCategory":1,"la1":30.2991,"la2":30.254,"lo1":-89.0895,"lo2":-89.0444,"dy":0.0017,"dx":0.0017,"nx":28,"ny":28,"refTime":"2024-07-16T03:00:00:Z","depth":0,"parameterNumber":3,"parameterNumberName":"V-component_of_WINDS"},"data":[0,0,0,0,0,0,0,0,0,0,0,0,0,0,0,0,0,0,0,0,0,0,0,0,0,0,0,0,0,0,0,0,0,0,0,0,0,0,0,0,0,0,0,0,0,0,0,0,0,0,0,0,0,0,0,0,0,0,3.2284,3.2285,0,3.239,3.2391,3.2392,3.2382,3.238,3.2379,3.2377,3.2481,3.2486,3.249,0,0,0,0,0,0,0,0,0,0,0,0,0,3.2066,3.207,3.2284,3.2285,3.2286,3.239,3.2391,3.2393,3.2382,3.238,3.2378,3.2376,3.248,3.2485,3.249,0,0,0,0,0,0,0,0,0,0,0,0,0,3.2165,3.2071,3.2283,3.2294,3.2296,3.239,3.2391,3.2393,3.2383,3.238,3.2378,3.2375,3.2478,3.2485,3.2491,3.258,0,0,3.2511,3.2514,0,0,0,0,0,0,0,0,3.2159,3.2173,3.2291,3.2293,3.2295,3.237,3.2353,3.2456,3.2383,3.2349,3.2377,3.2374,3.2446,3.2455,3.248,3.2585,3.259,3.2511,3.2515,3.2518,3.252,0,0,0,0,0,0,0,3.2152,3.2168,3.2326,3.2292,3.2295,3.2291,3.2302,3.2372,3.241,3.2352,3.2352,3.2365,3.2447,3.2474,3.2483,3.2591,3.2511,3.2517,3.2521,3.2523,3.2772,3.2775,0,0,0,0,0,0,3.2144,3.2163,3.2322,3.2329,3.222,3.2297,3.231,3.2349,3.2409,3.2416,3.2367,3.2364,3.2464,3.2475,3.2486,3.2593,3.2518,3.2524,3.2528,3.2769,3.2773,3.2775,0,0,0,0,0,0,3.2139,3.2158,3.2318,3.2246,3.2266,3.2303,3.2347,3.2352,3.2379,3.242,3.2427,3.2388,3.2463,3.2477,3.2557,3.2597,3.2527,3.2533,3.2766,3.277,3.2774,3.2809,0,0,0,0,0,0,3.2133,3.2157,3.2193,3.2247,3.227,3.2389,3.235,3.2356,3.2391,3.2388,3.2442,3.2448,3.2462,3.2547,3.2563,3.2604,3.2538,3.2763,3.2768,3.2773,3.2804,3.2814,3.2822,0,0,0,0,0,3.2125,3.2198,3.2194,3.2214,3.2316,3.2391,3.2404,3.2419,3.2394,3.243,3.2456,3.2447,3.259,3.2555,3.2573,3.2617,3.276,3.2766,3.2772,3.28,3.2812,3.2822,0,0,0,0,0,0,3.2146,3.2205,3.2202,3.2295,3.2338,3.2389,3.2434,3.2431,3.2482,3.2477,3.2492,3.2504,3.2584,3.2609,3.2569,3.2705,3.2671,3.2681,3.2687,3.2698,3.2706,3.2698,3.2543,0,0,0,0,0,3.2162,3.222,3.2267,3.2344,3.2366,3.2396,3.243,3.2438,3.2483,3.2501,3.2533,3.2575,3.263,3.2665,3.2718,3.2808,3.2818,3.2847,3.2855,3.2862,3.287,3.2917,3.293,3.2796,3.2796,3.2795,0,0,3.2194,3.2233,3.2269,3.2349,3.2384,3.2442,3.2412,3.2475,3.2517,3.251,3.2587,3.2612,3.266,3.2745,3.2784,3.2768,3.291,3.287,3.2875,3.288,3.2925,3.2938,3.2949,3.28,3.2799,3.2798,0,0,3.2282,3.2319,3.2386,3.2421,3.2474,3.2494,3.251,3.2561,3.2578,3.2655,3.2651,3.27,3.2794,3.2828,3.2858,3.2957,3.295,3.2974,3.3018,3.3064,3.3075,3.3084,3.3118,3.313,3.2982,3.2982,3.2982,0,3.2316,3.2404,3.242,3.2484,3.2518,3.2515,3.2582,3.2615,3.2681,3.2704,3.2686,3.2803,3.2835,3.2927,3.2951,3.2975,3.2992,3.2967,3.3072,3.3082,3.3091,3.3123,3.3136,3.2984,3.2984,3.2984,3.2983,0,3.2441,3.2502,3.255,3.2615,3.2655,3.272,3.2744,3.2782,3.2786,3.2806,3.2884,3.2923,3.2982,3.3005,3.3009,3.3096,3.3085,3.3069,3.3035,3.3106,3.3136,3.3149,3.2988,3.2987,3.2986,3.2985,0,0,3.2546,3.2619,3.2636,3.2665,3.2722,3.2769,3.2832,3.2891,3.2923,3.2968,3.302,3.3099,3.3085,3.3118,3.3126,3.3167,3.324,3.3146,3.3147,3.3161,3.3336,3.3347,3.3361,3.3236,3.3239,3.3241,3.3332,0,3.2639,3.2753,3.2768,3.2868,3.2923,3.2921,3.2975,3.3015,3.3036,3.3084,3.3106,3.3161,3.3139,3.3159,3.3199,3.3223,3.3276,3.3217,3.3283,3.3285,3.327,3.3377,3.3389,3.3473,3.3344,3.3346,3.3347,0,3.2763,3.2812,3.2918,3.2966,3.299,3.3039,3.3093,3.314,3.3185,3.3196,3.3233,3.3236,3.3299,3.3263,3.3348,3.3308,3.3336,3.3351,3.3355,3.3361,3.332,3.3384,3.3501,3.3513,3.3367,3.3365,3.3364,0,3.2826,3.292,3.2994,3.3019,3.3078,3.3112,3.3138,3.318,3.3214,3.326,3.3282,3.3335,3.3364,3.3404,3.342,3.3393,3.3504,3.347,3.3514,3.3514,3.3537,3.3535,3.3658,3.3557,3.3557,3.3557,3.3556,0,3.2928,3.2992,3.3024,3.3069,3.314,3.3157,3.3226,3.325,3.3287,3.3336,3.3336,3.3382,3.3401,3.3448,3.3461,3.3529,3.3542,3.3552,3.3554,3.3551,3.355,3.3569,3.3563,3.356,3.3559,3.3559,3.3558,0,3.3011,3.3035,3.3116,3.3165,3.3178,3.3228,3.3269,3.3312,3.3331,3.3393,3.3408,3.3439,3.3495,3.3515,3.3583,3.3591,3.3669,3.3667,3.3655,3.3655,3.3697,3.3693,3.3836,3.3854,3.3742,3.3743,3.3744,0,3.3073,3.3123,3.3177,3.321,3.3237,3.3291,3.3325,3.3342,3.3378,3.3431,3.3467,3.3523,3.3569,3.3658,3.3685,3.3737,3.3735,3.3781,3.3743,3.3737,3.3734,3.373,3.3734,3.3788,3.3789,3.379,3.3791,0,3.3181,3.319,3.3241,3.3295,3.3337,3.338,3.3422,3.3449,3.3472,3.3511,3.3569,3.3605,3.3674,3.3729,3.3781,3.3805,3.3802,3.3803,3.3816,3.3813,3.3803,3.3807,3.3673,3.38,3.3799,3.3798,3.3798,3.3797,3.3255,3.3298,3.3342,3.3398,3.3431,3.347,3.3512,3.3537,3.3586,3.3645,3.3652,3.3713,3.3754,3.3824,3.3851,3.3898,3.3885,3.3903,3.3908,3.3912,3.3914,3.3796,3.3907,3.3907,3.3907,3.3907,3.3907,0,3.3361,3.3389,3.344,3.3499,3.3542,3.3536,3.3582,3.3618,3.3673,3.3712,3.3757,3.3822,3.3875,3.3905,3.3958,3.3989,3.3989,3.4002,3.3999,3.4005,3.3924,3.3907,3.4002,3.4002,3.4002,3.4002,3.4002,3.4002,3.3421,3.3493,3.3507,3.3595,3.3622,3.3683,3.3709,3.3744,3.3775,3.3849,3.3893,3.3913,3.3948,3.4003,3.405,3.4058,3.4076,3.4091,3.4097,3.402,3.4011,3.4001,3.3985,3.4095,3.4095,3.4173,3.4174,3.4175]}]]